Location: Bethel Church
(38.0159°N, 88.7292°W)
Time: 02:58:00
(UTC+00:00)

Meteor 1-27 Rocket - Pass Details

Date: 08 December 2021
Orbit: 831 x 909 km, 81.3° (Epoch: 21 January)

Event Time Altitude Azimuth Distance (km) Brightness Sun altitude
Rises 23:40:58 0° 167° (SSE) 3,370 6.9 -12.7°
Reaches altitude 10° 23:43:29 10° 159° (SSE) 2,435 6.1 -13.1°
Maximum altitude 23:48:34 39° 92° (E) 1,222 4.1 -14.1°
Drops below altitude 10° 23:53:39 10° 25° (NNE) 2,447 5.7 -15.0°
Enters shadow 23:53:55 - 24° (NNE) 2,544 5.8 -15.1°
